Starlink 32176

operational
NORAD ID: 60340 Int'l Des: 2024-136 Owner: SPXS Country: US Constellation: starlink
LEOCIRCULAR

About Starlink 32176

Description loading...

Live Position

Loading 3D Globe...

Upcoming Passes

Altitude History

Altitude vs Time

uPlot chart will show altitude changes over time

Two-Line Element Set

1 60340U 24136M 25353.99932154 -.00000003 00000-0 12045-4 0 9999
2 60340 53.1605 85.8195 0001287 77.3557 282.7588 15.30192761 78632
Epoch: Dec 19, 2025 • Age: 11 hours

Current Status

Altitude 476.1 km
Velocity 7.63 km/s
Sub-Earth Point 29.16°N, 147.85°W
Launch Date Aug 2, 2024
Age 1.3 years
Type internet

Technical Details

Classification Payload
Mass 730.00 kg
Dry Mass 700.00 kg
Total Mass 730.00 kg
Length 0.30 m
Diameter 4.10 m
Span 29.00 m
Shape Box + pan
Manufacturer SPXS
Bus Type Starlink V2M
Phase Status In Orbit
Owner/State SPXS/US

Large Constellations

Loading constellations...